一网星座-0223星 (ONEWEB-0223 )

导读 | 星芒AI

ONEWEB-0223 是 OneWeb 卫星通信公司发射的低轨通信卫星之一,属于其全球宽带互联网星座计划。该卫星运行在约 1200 公里的近地轨道,采用先进通信技术,旨在为全球偏远地区提供高速互联网服务。作为 OneWeb 第二批卫星的一部分,ONEWEB-0223 于 2022 年由阿丽亚娜航天公司发射,具备高容量和低延迟特性,支持航空、海事及陆地用户的连接需求,助力实现全球数字包容。

基本信息
目录编号:
48768
目录名称:
ONEWEB-0223
国际标识:
2021-045B
轨道中心:
EARTH
卫星名称:
一网星座-0223星
卫星全名:
一网星座-0223星 (ONEWEB-0223 )
卫星状态:
在轨 (已飞行1616 天)
发射日期:
2021-05-28 UTC
国别 :
英国 (GB)
星等 :
--
轨道信息
数据来源 国际轨道数据 AOE轨道数据
星历时间 2025-10-30T01:44:58+0800
11小时前
查看轨道信息
2025-10-29T14:00:00+0800
23小时前
查看轨道信息
半长轴 7579.906km 7579.896km
偏心率 0.0002136 0.0002235
轨道倾角 87.896° 87.896°
近地点辐角 102.493° 100.548°
升交点赤经 305.171° 305.270°
平近点角 257.644° 102.358°
近地点 1200.151km 1200.066km
远地点 1203.391km 1203.456km
周期 109.460分钟 109.460分钟
每日圈数 13.155492 13.155517
详细信息
平衡模式:
三轴稳定
覆盖范围:
全球
运营商:
一网卫星公司
运营商所在国:
英国
制造商(研发单位):
一网卫星公司
制造商所在国:
英国
使用方式:
暂无
卫星简介
OneWeb卫星网络由648颗重约125公斤的微型卫星组成,运行在1200公里的轨道上。 每颗卫星都能够提供至少每秒8千兆位的吞吐量,以使用其高吞吐量的Ku频段有效载荷为家庭和移动平台提供互联网接入。该卫星仍在工作。
2D轨道图
3D轨道图
轨道高度分析图
轨道倾角分析图
轨道综合分析图
查看轨道综合分析图